Home > Time Zones > World Clock > Weather > Mali > Bamako > Past weeks

Flag for Mali Weather past 2 weeks in Bamako, Mali

Now
68 °F

Clear.


Feels Like: 68 °F
Forecast: 68 / 91 °F
Wind: 3 mph from North

Location: Bamako / Senou

Current Time: Dec 18, 2014 at 2:28:55 AM

Latest Report: Dec 18, 2014 at 2:00 AM


Visibility: 5 mi

Pressure: 29.98 "Hg

Humidity: 33%

Dew point: 37 °F

Location of BamakoLocation

Historic Weather in Bamako — Graph

°F

Bamako temperature yesterday

Maximum temperature yesterday: 90 °F (at 3:00 PM)
Minimum temperature yesterday: 64 °F (at 7:00 AM)
Average temperature yesterday: 76 °F

Past Weeks' High & Low Weather Summary

 TemperatureHumidityPressure
High99 °F (Dec 4, 3:00 PM)83% (Dec 3, 3:00 AM)30.09 "Hg (Dec 3, 3:00 AM)
Low50 °F (Dec 13, 3:30 AM)10% (Dec 6, 2:00 PM)29.83 "Hg (Dec 3, 3:00 PM)
Average78 °F26%29.96 "Hg
* Reported Dec 3 1:00 AM — Dec 18 1:30 AM, Bamako, Weather by CustomWeather, © 2014

Note: Actual official high and low records may vary slightly from our data, if they occured in-between our weather recording intervals... More about our weather records

Advertising

Bamako weather history for previous 24 hours

 ConditionsComfort  
Time TempWeatherWind HumidityBarometerVisibility
1:30 AM
Dec 18
70 °FClear.3 mph29%30.01 "Hg5 mi
1:00 AM72 °FClear.3 mph29%30.01 "Hg5 mi
12:30 AM72 °FClear.6 mph25%30.01 "Hg5 mi
12:00 AM72 °FClear.6 mph23%30.01 "Hg5 mi
11:30 PM
Dec 17
73 °FClear.7 mph22%30.01 "Hg5 mi
11:00 PM73 °FClear.7 mph20%30.04 "Hg5 mi
10:30 PM75 °FClear.6 mph21%30.04 "Hg5 mi
10:00 PM77 °FClear.6 mph19%30.04 "Hg5 mi
9:30 PM79 °FClear.6 mph17%30.04 "Hg5 mi
8:30 PM81 °FClear.7 mph16%30.01 "Hg5 mi
8:00 PM79 °FClear.7 mph17%29.98 "Hg10 mi
7:30 PM81 °FClear.7 mph17%29.98 "Hg10 mi
7:00 PM79 °FClear.7 mph20%29.98 "Hg10 mi
6:30 PM77 °FClear.5 mph21%29.95 "Hg10 mi
6:00 PM81 °FSunny.7 mph16%29.95 "Hg10 mi
5:30 PM86 °FSunny.7 mph12%29.95 "Hg10 mi
5:00 PM88 °FPassing clouds.7 mph11%29.95 "HgN/A
4:30 PM90 °FPassing clouds.8 mph12%29.95 "HgN/A
4:00 PM90 °FPassing clouds.7 mph12%29.95 "HgN/A
3:30 PM90 °FPassing clouds.8 mph11%29.95 "HgN/A
3:00 PM90 °FClear.9 mph12%29.95 "Hg5 mi
2:30 PM88 °FClear.8 mph11%29.95 "Hg5 mi
2:00 PM88 °FClear.7 mph13%29.98 "Hg5 mi
1:30 PM86 °FClear.8 mph14%29.98 "Hg5 mi
1:00 PM84 °FClear.8 mph14%30.01 "Hg5 mi
12:00 PM81 °FClear.12 mph16%30.01 "Hg5 mi
11:30 AM81 °FClear.15 mph15%30.04 "Hg5 mi
11:00 AM79 °FClear.16 mph17%30.07 "Hg5 mi
10:30 AM77 °FSunny.16 mph18%30.07 "Hg10 mi
10:00 AM75 °FSunny.14 mph19%30.07 "Hg10 mi
9:30 AM75 °FPassing clouds.15 mph19%30.07 "HgN/A
9:00 AM75 °FSunny.14 mph19%30.04 "Hg10 mi
8:30 AM73 °FPassing clouds.9 mph20%30.04 "HgN/A
8:00 AM70 °FPassing clouds.6 mph25%30.04 "HgN/A
7:30 AM64 °FSunny.6 mph32%30.04 "Hg10 mi
7:00 AM64 °FSunny.7 mph32%30.01 "Hg10 mi
6:30 AM66 °FClear.7 mph30%30.01 "Hg10 mi
6:00 AM66 °FClear.7 mph26%30.01 "Hg10 mi
5:30 AM68 °FClear.7 mph24%29.98 "Hg10 mi
5:00 AM66 °FPassing clouds.6 mph28%29.98 "HgN/A
4:30 AM66 °FClear.7 mph26%29.98 "Hg10 mi
4:00 AM66 °FClear.7 mph28%29.98 "Hg10 mi
3:30 AM68 °FClear.3 mph28%29.98 "Hg10 mi
3:00 AM70 °FClear.5 mph29%29.95 "Hg4 mi
2:30 AM70 °FClear.5 mph27%30.01 "Hg5 mi
2:00 AM72 °FClear.5 mph25%30.01 "Hg5 mi
Weather by CustomWeather, © 2014

See weather overviewHow to use our weather pages